Weather History for Windom, MN

Change the Weather History Date:

Monday, November 15, 2010

  Actual Average Record
Temperature  
Mean Temperature 32 °F -  
Max Temperature 39 °F 42 °F 70 °F (1953)
Min Temperature 24 °F 23 °F 6 °F (1959)
Degree Days  
Heating Degree Days 34    
Moisture  
Dew Point 30 °F    
Average Humidity 93    
Maximum Humidity 100    
Minimum Humidity 86    
Precipitation  
Precipitation 0.00 in - - ()
Sea Level Pressure  
Sea Level Pressure 29.69 in    
Wind  
Wind Speed 4 mph (SSW)    
Max Wind Speed 8 mph    
Max Gust Speed -    
Visibility 9 miles    
Events Rain    
Averages and records for this station are not official NWS values.
T = Trace of Precipitation, MM = Missing Value Source: NWS Daily Summary

Daily Weather History Graph

Daily Weather History Graph

Search for Another Location

Airport:

Trip Planner

Search our weather history database for the weather conditions in past years. The results will help you decide how hot, cold, wet, or windy it might be!

Date:

Astronomy

Nov. 15, 2010 Rise Set
Actual Time 7:15 AM CST 4:54 PM CST
Civil Twilight 6:44 AM CST 5:25 PM CST
Nautical Twilight 6:09 AM CST 6:00 PM CST
Astronomical Twilight 5:35 AM CST 6:34 PM CST
Moon 1:47 PM CST (11/15) 1:10 AM CST (11/15)
Length of Visible Light 10h 41m
Length of Day
9h 39m
Waxing Gibbous, 69% of the Moon is Illuminated
Nov 15
Waxing Gibbous
Nov 21
Full
Nov 28
Last Quarter
Dec 5
New
Dec 13
First Quarter

Hourly Weather History & Observations

Time (CST) Temp. Windchill Dew Point Humidity Pressure Visibility Wind Dir Wind Speed Gust Speed Precip Events Conditions
12:13 AM 28.4 °F 23.3 °F 26.6 °F 93% 29.67 in 10.0 mi South 4.6 mph - N/A   Clear
12:33 AM 28.4 °F 23.3 °F 26.6 °F 93% 29.67 in 10.0 mi South 4.6 mph - N/A   Clear
12:53 AM 26.6 °F 20.0 °F 26.6 °F 100% 29.67 in 10.0 mi South 5.8 mph - N/A   Clear
1:13 AM 26.6 °F - 26.6 °F 100% 29.66 in 10.0 mi Calm Calm - N/A   Clear
1:33 AM 26.6 °F - 26.6 °F 100% 29.65 in 10.0 mi Calm Calm - N/A   Clear
2:13 AM 26.6 °F 22.6 °F 26.6 °F 100% 29.65 in 10.0 mi South 3.5 mph - N/A   Clear
2:33 AM 26.6 °F 21.2 °F 24.8 °F 93% 29.65 in 10.0 mi SSW 4.6 mph - N/A   Clear
2:53 AM 26.6 °F 21.2 °F 24.8 °F 93% 29.65 in 10.0 mi South 4.6 mph - N/A   Clear
3:13 AM 26.6 °F 22.6 °F 24.8 °F 93% 29.65 in 10.0 mi South 3.5 mph - N/A   Clear
3:33 AM 26.6 °F 22.6 °F 24.8 °F 93% 29.65 in 10.0 mi SSW 3.5 mph - N/A   Clear
3:53 AM 26.6 °F 19.1 °F 24.8 °F 93% 29.65 in 10.0 mi SSW 6.9 mph - N/A   Clear
4:13 AM 26.6 °F 18.2 °F 24.8 °F 93% 29.65 in 10.0 mi SSW 8.1 mph - N/A   Clear
4:33 AM 26.6 °F 20.0 °F 24.8 °F 93% 29.65 in 10.0 mi SSW 5.8 mph - N/A   Clear
4:53 AM 26.6 °F 21.2 °F 24.8 °F 93% 29.65 in 10.0 mi SSW 4.6 mph - N/A   Clear
5:13 AM 26.6 °F 21.2 °F 24.8 °F 93% 29.65 in 10.0 mi SSW 4.6 mph - N/A   Clear
5:33 AM 24.8 °F 16.9 °F 24.8 °F 100% 29.65 in 10.0 mi SW 6.9 mph - N/A   Clear
6:13 AM 24.8 °F 19.1 °F 23.0 °F 93% 29.65 in 10.0 mi SSW 4.6 mph - N/A   Clear
6:33 AM 24.8 °F - 24.8 °F 100% 29.65 in 10.0 mi Calm Calm - N/A   Clear
6:53 AM 24.8 °F 20.5 °F 24.8 °F 100% 29.65 in 10.0 mi SSW 3.5 mph - N/A   Clear
7:13 AM 24.8 °F - 23.0 °F 93% 29.66 in 10.0 mi Calm Calm - N/A   Scattered Clouds
7:33 AM 24.8 °F 20.5 °F 24.8 °F 100% 29.66 in 10.0 mi SSW 3.5 mph - N/A   Scattered Clouds
7:53 AM 24.8 °F 20.5 °F 24.8 °F 100% 29.67 in 10.0 mi SSW 3.5 mph - N/A   Scattered Clouds
8:13 AM 26.6 °F 22.6 °F 24.8 °F 93% 29.67 in 10.0 mi SSW 3.5 mph - N/A   Scattered Clouds
8:33 AM 26.6 °F 20.0 °F 24.8 °F 93% 29.68 in 10.0 mi SW 5.8 mph - N/A   Unknown
8:53 AM 28.4 °F 24.6 °F 26.6 °F 93% 29.68 in 10.0 mi South 3.5 mph - N/A   Unknown
9:13 AM 30.2 °F 25.4 °F 26.6 °F 86% 29.68 in 10.0 mi SSW 4.6 mph - N/A   Clear
9:33 AM 30.2 °F 24.3 °F 28.4 °F 93% 29.69 in 10.0 mi SSW 5.8 mph - N/A   Clear
10:13 AM 32.0 °F 27.5 °F 30.2 °F 93% 29.70 in 10.0 mi SW 4.6 mph - N/A   Clear
10:33 AM 33.8 °F 28.6 °F 30.2 °F 87% 29.70 in 10.0 mi SW 5.8 mph - N/A   Clear
10:53 AM 33.8 °F 28.6 °F 30.2 °F 87% 29.71 in 10.0 mi SW 5.8 mph - N/A   Clear
11:13 AM 33.8 °F 29.6 °F 30.2 °F 87% 29.71 in 10.0 mi SSW 4.6 mph - N/A   Clear
11:33 AM 35.6 °F 32.8 °F 32.0 °F 87% 29.70 in 10.0 mi WSW 3.5 mph - N/A   Clear
11:53 AM 35.6 °F 31.7 °F 33.8 °F 93% 29.71 in 10.0 mi SW 4.6 mph - N/A   Clear
12:13 PM 37.4 °F 33.8 °F 33.8 °F 87% 29.70 in 10.0 mi WSW 4.6 mph - N/A   Clear
12:53 PM 37.4 °F 32.8 °F 33.8 °F 87% 29.70 in 10.0 mi WSW 5.8 mph - N/A   Clear
1:13 PM 37.4 °F 33.8 °F 33.8 °F 87% 29.70 in 10.0 mi WSW 4.6 mph - N/A   Clear
1:33 PM 39.2 °F 37.0 °F 35.6 °F 87% 29.70 in 10.0 mi WSW 3.5 mph - N/A   Clear
1:53 PM 39.2 °F 37.0 °F 35.6 °F 87% 29.70 in 10.0 mi SSW 3.5 mph - N/A   Scattered Clouds
2:13 PM 39.2 °F 37.0 °F 35.6 °F 87% 29.70 in 10.0 mi SSW 3.5 mph - N/A   Mostly Cloudy
2:33 PM 39.2 °F 37.0 °F 35.6 °F 87% 29.70 in 10.0 mi South 3.5 mph - N/A   Scattered Clouds
2:53 PM 39.2 °F 37.0 °F 35.6 °F 87% 29.70 in 10.0 mi South 3.5 mph - N/A   Clear
3:13 PM 39.2 °F - 35.6 °F 87% 29.70 in 10.0 mi Calm Calm - N/A   Clear
3:33 PM 39.2 °F 35.9 °F 35.6 °F 87% 29.72 in 10.0 mi SSW 4.6 mph - N/A   Scattered Clouds
3:53 PM 39.2 °F 37.0 °F 35.6 °F 87% 29.72 in 10.0 mi SSE 3.5 mph - N/A   Scattered Clouds
4:13 PM 39.2 °F - 35.6 °F 87% 29.73 in 10.0 mi Calm Calm - N/A   Unknown
4:33 PM 37.4 °F - 35.6 °F 93% 29.73 in 10.0 mi Calm Calm - N/A   Unknown
4:53 PM 35.6 °F - 33.8 °F 93% 29.73 in 10.0 mi Calm Calm - N/A   Mostly Cloudy
5:13 PM 35.6 °F - 33.8 °F 93% 29.73 in 7.0 mi Calm Calm - N/A   Overcast
5:33 PM 35.6 °F 30.7 °F 35.6 °F 100% 29.73 in 7.0 mi East 5.8 mph - N/A   Unknown
5:53 PM 35.6 °F - 35.6 °F 100% 29.73 in 10.0 mi Calm Calm - N/A   Overcast
6:13 PM 35.6 °F - 35.6 °F 100% 29.73 in 10.0 mi Calm Calm - N/A   Overcast
6:33 PM 35.6 °F 32.8 °F 35.6 °F 100% 29.73 in 4.0 mi East 3.5 mph - N/A Rain Rain
6:53 PM 35.6 °F - 35.6 °F 100% 29.74 in 7.0 mi Calm Calm - N/A   Overcast
7:13 PM 35.6 °F - 35.6 °F 100% 29.74 in 7.0 mi Calm Calm - N/A   Overcast
7:33 PM 35.6 °F 32.8 °F 35.6 °F 100% 29.73 in 7.0 mi ESE 3.5 mph - N/A   Unknown
7:53 PM 35.6 °F 32.8 °F 33.8 °F 93% 29.73 in 2.5 mi East 3.5 mph - N/A Rain Rain
8:33 PM 35.6 °F - 35.6 °F 100% 29.73 in 5.0 mi Calm Calm - N/A   Mist
8:53 PM 35.6 °F - 35.6 °F 100% 29.73 in 5.0 mi Calm Calm - N/A   Overcast
9:33 PM 35.6 °F 31.7 °F 33.8 °F 93% 29.73 in 4.0 mi NNE 4.6 mph - N/A   Overcast
9:53 PM 33.8 °F 30.8 °F 33.8 °F 100% 29.73 in 4.0 mi ENE 3.5 mph - N/A   Overcast
10:13 PM 33.8 °F 30.8 °F 33.8 °F 100% 29.73 in 3.0 mi North 3.5 mph - N/A   Overcast
10:33 PM 33.8 °F 30.8 °F 33.8 °F 100% 29.73 in 2.5 mi ENE 3.5 mph - N/A   Overcast
10:53 PM 33.8 °F 30.8 °F 33.8 °F 100% 29.72 in 2.0 mi ENE 3.5 mph - N/A   Overcast
11:13 PM 33.8 °F 29.6 °F 33.8 °F 100% 29.72 in 1.8 mi ENE 4.6 mph - N/A   Overcast
11:33 PM 33.8 °F 29.6 °F 33.8 °F 100% 29.72 in 1.5 mi ENE 4.6 mph - N/A   Overcast
11:53 PM 33.8 °F 29.6 °F 33.8 °F 100% 29.71 in 1.2 mi ENE 4.6 mph - N/A   Overcast